Back to catalog

STARLINK-32457

AliveCommunicationsVLEO
NORAD 61717·PAYLOAD·🇺🇸 United States

Launched Oct 30, 2024 from Cape Canaveral Space Force Station

Loading…

Next Passes (next 24 hours)

TLE

FreshSource: CelesTrak SupGP

Epoch: Sep 15, 2026, 03:25 UTC

1 61717C 24196L   26258.14284722  .00014194  00000+0  41922-3 0  2584
2 61717  53.1593 298.8567 0001044  76.6460  74.5325 15.34394357    14

Track STARLINK-32457 in real time with AllMySat

Download on the App Store